Location: Kumla
(59.1265°N, 15.1401°E)
Time: 20:51:19
(UTC+01:00)

Tiros 1 - All Passes

Search period start: 06 December 2023 00:00
Search period end: 16 December 2023 00:00
Orbit: 625 x 659 km, 48.4° (Epoch: 06 December)

Date Brightness Start Highest point End Pass type
(mag) Time Alt. Az. Time Alt. Az. Time Alt. Az.
06 Dec - 04:22:45 10° S 04:25:00 13° SSE 04:27:14 10° ESE visible
06 Dec - 06:02:17 10° SW 06:05:55 22° S 06:09:34 10° ESE visible
06 Dec - 07:43:28 10° WSW 07:47:01 21° SSW 07:50:32 10° SE visible
06 Dec - 09:26:28 10° SW 09:27:52 11° SSW 09:29:14 10° SSW daylight
07 Dec - 04:45:46 10° SSW 04:48:58 18° SSE 04:52:10 10° ESE visible
07 Dec - 06:26:17 10° SW 06:30:01 23° S 06:33:45 10° SE visible
07 Dec - 08:08:01 10° WSW 08:11:03 17° SSW 08:14:04 10° SSE daylight
08 Dec - 03:30:10 10° S 03:32:07 12° SSE 03:34:05 10° SE visible
08 Dec - 05:09:25 10° SW 05:13:01 21° S 05:16:38 10° ESE visible
08 Dec - 06:50:31 10° WSW 06:54:07 21° S 06:57:42 10° SE visible
08 Dec - 08:33:11 10° SW 08:35:00 12° SSW 08:36:48 10° S daylight
09 Dec - 03:53:00 10° SSW 03:56:04 17° SSE 03:59:10 10° ESE visible
09 Dec - 05:33:22 10° SW 05:37:06 23° S 05:40:50 10° SE visible
09 Dec - 07:15:00 10° WSW 07:18:09 18° SSW 07:21:18 10° SSE visible
10 Dec - 02:37:39 10° SSE 02:39:14 12° SSE 02:40:50 10° SE visible
10 Dec - 04:16:33 10° SW 04:20:06 21° SSE 04:23:40 10° ESE visible
10 Dec - 05:57:34 10° WSW 06:01:11 22° S 06:04:49 10° SE visible
10 Dec - 07:39:59 10° SW 07:42:06 13° SSW 07:44:14 10° S visible
11 Dec - 03:00:13 10° SSW 03:03:10 16° SSE 03:06:07 10° ESE visible
11 Dec - 04:40:27 10° SW 04:44:11 23° S 04:47:55 10° SE visible
11 Dec - 06:21:59 10° WSW 06:25:14 18° SSW 06:28:30 10° SSE visible
12 Dec - 01:45:19 10° SSE 01:46:21 11° SSE 01:47:24 10° SE night (unlit)
12 Dec - 03:23:41 10° SW 03:27:11 20° SSE 03:30:41 10° ESE visible
12 Dec - 05:04:36 10° WSW 05:08:16 22° S 05:11:57 10° SE visible
12 Dec - 06:46:49 10° WSW 06:49:12 14° SSW 06:51:36 10° S visible
13 Dec - 02:07:28 10° SSW 02:10:16 16° SSE 02:13:03 10° ESE night (unlit)
13 Dec - 03:47:33 10° SW 03:51:15 23° S 03:54:58 10° SE visible
13 Dec - 05:28:59 10° WSW 05:32:19 19° SSW 05:35:40 10° SSE visible
14 Dec - 02:30:50 10° SSW 02:34:15 20° SSE 02:37:41 10° ESE visible
14 Dec - 04:11:39 10° SW 04:15:20 22° S 04:19:01 10° SE visible
14 Dec - 05:53:42 10° WSW 05:56:18 15° SSW 05:58:54 10° S visible
15 Dec - 01:14:44 10° S 01:17:21 15° SSE 01:19:57 10° ESE night (unlit)
15 Dec - 02:54:38 10° SW 02:58:18 22° S 03:02:00 10° SE visible
15 Dec - 04:35:58 10° WSW 04:39:23 20° SSW 04:42:48 10° SSE visible
